Location: Fredericksburg
(30.2750°N, 98.8720°W)
Time: 18:54:51
(UTC-05:00)

ISS - All Passes

Search period start: 28 September 2016 00:00
Search period end: 08 October 2016 00:00
Orbit: 400 x 410 km, 51.6° (Epoch: 29 September)

Date Brightness Start Highest point End Pass type
(mag) Time Alt. Az. Time Alt. Az. Time Alt. Az.
28 Sep - 04:36:58 10° NW 04:40:14 71° NE 04:43:30 10° SE night (unlit)
28 Sep - 19:36:42 10° SSW 19:39:37 32° SE 19:42:33 10° ENE daylight
28 Sep - 21:13:58 10° W 21:16:09 17° NW 21:18:21 10° N visible
29 Sep - 03:45:08 10° NNW 03:48:07 31° NE 03:51:05 10° ESE night (unlit)
29 Sep - 05:22:22 10° W 05:24:22 15° SW 05:26:22 10° SSW night (unlit)
29 Sep - 18:45:48 10° SSE 18:47:40 15° SE 18:49:33 10° E daylight
29 Sep - 20:20:59 10° WSW 20:23:55 31° NW 20:26:52 10° NNE visible
30 Sep - 02:53:40 10° N 02:55:52 17° NE 02:58:05 10° E night (unlit)
30 Sep - 04:29:25 10° WNW 04:32:25 33° SW 04:35:25 10° SSE night (unlit)
30 Sep - 19:28:33 10° SW 19:31:46 72° NW 19:35:00 10° NE daylight
01 Oct - 03:37:06 10° NW 03:40:23 83° SW 03:43:40 10° SE night (unlit)
01 Oct - 18:36:36 10° SSW 18:39:41 44° SE 18:42:48 10° ENE daylight
01 Oct - 20:14:37 10° WNW 20:16:20 14° NW 20:18:04 10° N visible
02 Oct - 02:45:07 10° NNW 02:48:15 41° NE 02:51:22 10° ESE night (unlit)
02 Oct - 04:23:18 10° WSW 04:24:24 11° SW 04:25:30 10° SW night (unlit)
02 Oct - 17:45:17 10° S 17:47:41 19° SE 17:50:06 10° E daylight
02 Oct - 19:21:18 10° W 19:24:02 24° NW 19:26:46 10° NNE daylight
03 Oct - 01:53:27 10° NNW 01:56:00 21° NE 01:58:33 10° E night (unlit)
03 Oct - 03:29:41 10° WNW 03:32:26 25° SW 03:35:10 10° S night (unlit)
03 Oct - 18:28:39 10° WSW 18:31:48 52° NW 18:34:59 10° NE daylight
04 Oct - 01:02:25 10° NNE 01:03:38 12° NNE 01:04:53 10° NE night (unlit)
04 Oct - 02:37:09 10° NW 02:40:23 59° SW 02:43:36 10° SSE night (unlit)
04 Oct - 17:36:29 10° SSW 17:39:40 63° SE 17:42:53 10° NE daylight
04 Oct - 19:15:28 10° NW 19:16:26 11° NNW 19:17:24 10° NNW daylight
05 Oct - 01:45:01 10° NW 01:48:15 56° NE 01:51:28 10° SE night (unlit)
05 Oct - 16:44:51 10° S 16:47:36 26° SE 16:50:22 10° ENE daylight
05 Oct - 18:21:37 10° W 18:24:03 19° NW 18:26:30 10° N daylight
06 Oct - 00:53:12 10° NNW 00:56:00 26° NE 00:58:48 10° E night (unlit)
06 Oct - 02:29:57 10° W 02:32:19 19° SW 02:34:41 10° S night (unlit)
06 Oct - 15:54:21 10° SSE 15:55:35 12° SE 15:56:50 10° ESE daylight
06 Oct - 17:28:43 10° WSW 17:31:46 38° NW 17:34:49 10° NNE daylight
07 Oct - 00:01:47 10° N 00:03:39 14° NE 00:05:31 10° ENE night (unlit)
07 Oct - 01:37:10 10° WNW 01:40:16 42° SW 01:43:22 10° SSE night (unlit)
07 Oct - 16:36:19 10° SW 16:39:33 88° SE 16:42:48 10° NE daylight
